HULIANWANG DIGUI-80 (65312 NORAD) Tracking and Keplerian Element Data

This shows tracking and keplerian element data for the satellite.

Feedback or suggestion? Click here.




ElementValue
Catalog65312
NameHULIANWANG DIGUI-80
Epoch Orbit1589
Epoch Day354.21919515
Epoch Year2025
RAAN127.7922
Inclination50.0019
Eccentricity2.66E-05
Argument of Perigee178.5641
Mean Anonmoly181.5232
Mean Motion13.29334667
Decay Rate-1.17E-06
L11 65312U 25187H 25354.21919515 -.00000117 00000+0 15237-4 0 9993
L22 65312 50.0019 127.7922 0000266 178.5641 181.5232 13.29334667 15899



Live tracking and technical data element details for HULIANWANG DIGUI-80 (NORAD 65312). HULIANWANG DIGUI-80 can be tracked NOW for your location showing map with azimuth and elevation plus other details from your city location.







IsCatalogInMostPopularTable: catalog: 65312, numindb: 4
Update: records affected: 1



GetName: 65312 HULIANWANG DIGUI-80

Hit Count: updated at: Wed, 15 Apr 2026 01:04:59 GMT